Printer-friendly version

IAU Minor Planet Center

Minor Planet Center

MPEC 2007-T96 : 2007 TK8

The following Minor Planet Electronic Circular may be linked-to from your own Web pages, but must not otherwise be redistributed electronically.


Read MPEC 2007-T95 Read MPEC 2007-T97


M.P.E.C. 2007-T96                                Issued 2007 Oct. 12, 23:01 UT

     The Minor Planet Electronic Circulars contain information on unusual
         minor planets and routine data on comets.  They are published
   on behalf of Commission 20 of the International Astronomical Union by the
          Minor Planet Center, Smithsonian Astrophysical Observatory,
                          Cambridge, MA 02138, U.S.A.

             Prepared using the Tamkin Foundation Computer Network

                              MPC@CFA.HARVARD.EDU
          URL http://www.cfa.harvard.edu/iau/mpc.html  ISSN 1523-6714

                                   2007 TK8

Observations:
     K07T08K  C2007 10 07.31996 01 12 55.94 +13 39 03.7          19.5 V ET096703
     K07T08K  C2007 10 07.32426 01 12 55.76 +13 39 00.7          19.4 V ET096703
     K07T08K  C2007 10 07.32862 01 12 55.58 +13 38 57.2          19.4 V ET096703
     K07T08K  C2007 10 07.33293 01 12 55.44 +13 38 53.7          19.4 V ET096703
     K07T08K* C2007 10 07.97413 01 12 43.97 +13 30 51.6          18.8 V ET096941
     K07T08K  C2007 10 07.97978 01 12 43.80 +13 30 47.2          18.8 V ET096941
     K07T08K  C2007 10 07.98316 01 12 43.70 +13 30 44.8          18.7 V ET096941
     K07T08K  C2007 10 07.98655 01 12 43.60 +13 30 42.5          18.7 V ET096941
     K07T08K  C2007 10 07.99670 01 12 43.31 +13 30 34.7          18.7 V ET096941
     K07T08K  C2007 10 08.87981 01 12 27.20 +13 19 19.7          18.8 V ET096941
     K07T08K  C2007 10 08.88199 01 12 27.15 +13 19 18.0          19.0 V ET096941
     K07T08K  C2007 10 08.88418 01 12 27.09 +13 19 16.4          19.0 V ET096941
     K07T08K  C2007 10 08.88480 01 12 27.07 +13 19 15.9          18.8 V ET096941
     K07T08K  C2007 10 08.89043 01 12 26.91 +13 19 11.7          18.5 V ET096941
     K07T08K  C2007 10 08.89513 01 12 26.78 +13 19 08.3          18.8 V ET096941
     K07T08K  C2007 10 09.25442 01 12 18.95 +13 14 34.4          19.4   ET096704
     K07T08K  C2007 10 09.26545 01 12 18.63 +13 14 26.6          19.9   ET096704
     K07T08K  C2007 10 09.27643 01 12 18.28 +13 14 17.9          19.9   ET096704
     K07T08K  C2007 10 09.29836 01 12 17.57 +13 14 00.1          19.9   ET096704
     K07T08K  C2007 10 12.82818 01 11 05.53 +12 26 18.4          18.9 V ET096941
     K07T08K  C2007 10 12.83445 01 11 05.38 +12 26 13.2          18.7 V ET096941
     K07T08K  C2007 10 12.84149 01 11 05.17 +12 26 07.6          18.5 V ET096941
     K07T08K  C2007 10 12.84305 01 11 05.13 +12 26 06.4          18.5 V ET096941
     K07T08K  C2007 10 12.87708 01 11 04.21 +12 25 38.5          19.0 V ET096J87
     K07T08K  C2007 10 12.88702 01 11 03.91 +12 25 30.6          19.2 V ET096J87
     K07T08K  C2007 10 12.90336 01 11 03.44 +12 25 17.0          19.5 V ET096J87

Observer details:
703 Catalina Sky Survey.  Observer R. A. Kowalski.  Measurers E. C. Beshore,
    A. Boattini, G. J. Garradd, A. R. Gibbs, A. D. Grauer, R. E. Hill,
    R. A. Kowalski, S. M. Larson, R. H. McNaught.  0.68-m Schmidt + CCD.
704 Lincoln Laboratory ETS, New Mexico.  Observers M. Bezpalko, D. Torres,
    R. Kracke, G. Spitz, J. Kistler.  Measurers J. Stuart, S. Scruggs.  1.0-m
    f/2.15 reflector + CCD.
941 Observatorio Pla D'Arguines.  Observers R. Ferrando, M. Ferrando.
    Measurer R. Ferrando.  0.40-m f/10 Ritchey-Chretien + CCD.
J87 La Canada.  Observer J. Lacruz.  0.40-m Ritchey-Chretien + CCD.

Orbital elements:
2007 TK8                                                 Earth MOID = 0.2582 AU
Epoch 2007 Oct. 27.0 TT = JDT 2454400.5                 MPC
M   0.91402              (2000.0)            P               Q
n   0.54294060     Peri.  171.53920     +0.87588803     -0.48144031
a   1.4881082      Node   217.29561     +0.43953228     +0.82360209
e   0.1575253      Incl.    3.04408     +0.19907668     +0.29982465
P   1.82           H   20.9           G   0.15           U   8
Residuals in seconds of arc
071007 703  0.7+  0.1-    071008 941  0.7-  0.2-    071009 704  1.0-  0.2-
071007 703  0.0   0.1+    071008 941  0.5-  0.3-    071012 941  0.4-  0.3-
071007 703  0.7-  0.2-    071008 941  0.5-  0.3-    071012 941  0.1-  0.5-
071007 703  0.8-  0.5-    071008 941  0.5-  0.3-    071012 941  0.3-  0.4-
071007 941  0.4-  0.3-    071008 941  0.6-  0.3-    071012 941  0.3-  0.3-
071007 941  0.4-  0.5-    071008 941  0.5-  0.2-    071012 J87  0.5-  0.0
071007 941  0.4-  0.3-    071009 704  1.4-  0.1+    071012 J87  0.6-  0.2+
071007 941  0.3-  0.1-    071009 704  0.9-  0.8+    071012 J87  0.4-  0.2-
071007 941  0.1-  0.3-    071009 704  0.9-  0.6+

Ephemeris:
2007 TK8                 a,e,i = 1.49, 0.16, 3                   q = 1.2537
Date    TT    R. A. (2000) Decl.     Delta      r     Elong.  Phase     V
2007 10 07    01 13.03   +13 43.2    0.262    1.259   169.6     8.2    19.1
2007 10 17    01 09.62   +11 27.3    0.259    1.255   175.4     3.7    18.8
2007 10 27    01 07.28   +09 05.7    0.266    1.254   165.8    11.2    19.2
2007 11 06    01 08.04   +07 08.5    0.285    1.256   155.3    19.2    19.6
2007 11 16    01 12.98   +05 55.4    0.313    1.261   145.9    26.1    20.1
2007 11 26    01 22.27   +05 31.9    0.350    1.268   137.8    31.5    20.5
2007 12 06    01 35.28   +05 51.8    0.395    1.279   130.7    35.7    20.9
2007 12 16    01 51.38   +06 46.4    0.447    1.291   124.6    38.8    21.3
2007 12 26    02 09.96   +08 05.4    0.505    1.306   119.3    41.0    21.6
2008 01 05    02 30.41   +09 39.2    0.568    1.323   114.4    42.6    21.9

Timothy B. Spahr             (C) Copyright 2007 MPC           M.P.E.C. 2007-T96

Read MPEC 2007-T95 Read MPEC 2007-T97


Our Web policy. Index to the CBAT/MPC/ICQ pages.


Valid HTML 4.01!